SCP
0 0 0 0 0 0 0 0 0 0 0 0 0 0 0 0 0 1 1 1 0 0 0 0 0 0 0 0 0 0 0 0 0 1 1 1 0 0 0 0 0 0 0 0
0 0 0 0 0 0 0 0 0 0 0 0 0 0 0 0 0 1 1 0 0 0 0 0 0 0 0 0 0 0 0 0 1 1 1 1 0 0 0 0 0 0 0 0
0 0 0 0 0 0 0 0 0 0 0 0 0 0 0 0 0 0 1 0 0 0 0 0 0 0 0 0 0 0 0 0 1 1 1 1 0 0 0 0 0 0 0 0
0 0 0 0 0 0 0 0 0 0 0 0 0 0 0 0 0 0 1 1 0 0 0 0 0 0 0 1 0 0 0 0 1 1 0 0 0 0 0 0 0 0 0 0
0 0 0 0 0 0 0 0 0 0 0 0 0 0 0 0 0 0 0 1 1 0 0 0 0 0 0 1 1 0 0 1 1 0 0 0 0 1 1 0 0 0 0 0
0 0 0 0 0 0 0 0 0 0 0 0 0 0 0 0 0 0 1 1 1 1 0 0 0 0 1 1 1 0 0 0 0 0 0 0 0 1 1 0 0 0 0 0
0 0 0 0 0 0 0 0 0 0 0 0 0 0 0 0 0 0 1 1 1 1 1 0 0 0 1 1 1 1 0 0 0 0 0 0 0 1 0 0 0 0 0 0
0 0 0 0 0 0 0 0 0 0 0 0 0 0 0 0 0 1 1 1 1 1 1 0 0 0 0 1 1 1 1 1 1 1 1 1 1 0 0 0 0 0 0 0
0 0 0 0 0 0 0 0 0 0 0 0 0 0 0 0 0 1 1 1 1 1 1 0 0 0 0 0 0 1 1 1 1 1 1 1 1 1 0 0 0 0 0 0
0 0 0 0 0 0 0 0 0 0 0 0 0 0 0 0 0 1 1 1 1 1 1 0 0 0 0 0 0 0 1 1 1 1 1 1 1 0 0 0 0 0 0 0
0 0 0 0 0 0 0 0 0 0 0 0 0 0 0 0 0 0 1 1 1 1 1 0 0 0 0 0 0 0 1 1 1 1 1 1 1 0 0 0 0 0 0 0
0 0 0 0 0 0 0 0 0 0 0 0 0 0 0 0 0 0 0 0 0 0 0 0 0 0 0 0 0 0 1 1 1 1 0 0 0 0 0 0 0 0 0 0
0 0 0 0 0 0 0 0 0 0 0 0 0 0 0 0 0 0 0 0 0 0 0 0 0 0 0 0 0 0 0 1 0 0 0 0 0 0 0 0 0 0 0 0
0 0 0 0 0 0 0 0 0 0 0 0 0 0 0 0 0 0 0 0 0 0 0 0 0 0 0 0 0 0 0 0 0 0 0 0 0 0 0 0 0 0 0 0
0 0 0 0 0 0 0 0 0 0 0 0 0 0 0 0 0 0 0 0 0 0 0 0 0 0 0 0 0 0 0 0 0 0 0 0 0 0 0 0 0 0 0 0
0 0 0 0 0 0 0 0 0 0 0 0 0 0 0 0 0 0 0 0 0 0 0 0 0 0 0 0 0 0 0 0 0 0 0 0 0 0 0 0 0 0 0 0
0 0 0 0 0 0 0 0 0 0 0 0 0 0 0 0 0 0 0 0 0 0 0 0 0 0 0 0 0 0 0 0 0 0 0 0 0 0 0 0 0 0 0 0
0 0 0 0 0 0 0 0 0 0 0 0 0 0 0 0 0 0 0 0 0 0 0 0 0 0 0 0 0 0 0 0 0 0 0 0 0 0 0 0 0 0 0 0
0 0 0 0 0 0 0 0 0 0 0 0 0 0 0 0 0 0 0 0 0 0 0 0 0 0 0 0 0 0 0 0 0 0 0 0 0 0 0 0 0 0 0 0
0 0 0 0 0 0 0 0 0 0 0 0 0 0 0 0 0 0 0 0 0 0 0 0 0 0 0 0 0 0 0 0 0 0 0 0 0 0 0 0 0 0 0 0
0 0 0 0 0 0 0 0 0 0 0 0 0 0 0 0 0 0 0 0 0 0 0 0 0 0 0 0 0 0 0 0 0 0 0 0 0 0 0 0 0 0 0 0
0 0 0 0 0 0 0 0 0 0 0 0 0 0 0 0 0 0 0 0 0 0 0 0 0 0 0 0 0 0 0 0 0 0 0 0 0 0 0 0 0 0 0 0
0 0 0 0 0 0 0 0 0 0 0 0 0 0 0 0 0 0 0 0 0 0 0 0 0 0 0 0 0 0 0 0 0 0 0 0 0 0 0 0 0 0 0 0
0 0 0 0 0 0 0 0 0 0 0 0 0 0 0 0 0 0 0 0 0 0 0 0 0 0 0 0 0 0 0 0 0 0 0 0 0 0 0 0 0 0 0 0
0 0 0 0 0 0 0 0 0 0 0 0 0 0 0 0 0 0 0 0 0 0 0 0 0 0 0 0 0 0 0 0 0 0 0 0 0 0 0 0 0 0 0 0
0 0 0 0 0 0 0 0 0 0 0 0 0 0 0 0 0 0 0 0 0 0 0 0 0 0 0 0 0 0 0 0 0 0 0 0 0 0 0 0 0 0 0 0
0 0 0 0 0 0 0 0 0 0 0 0 0 0 0 0 0 0 0 0 0 0 0 0 0 0 0 0 0 0 0 0 0 0 0 0 0 0 0 0 0 0 0 0
Wind_Speed
12 9 10 11 12 14 16 15 13 10 10 6 3 2 3 5 6 7 7 7 6 6 5 5 5 6 6 6 6 6 6 6 5 5 5 4 4 4 4 4 4 4 3 3
12 11 12 13 14 15 16 15 15 12 9 4 2 1 3 6 7 8 8 7 6 6 6 5 5 5 6 6 6 6 6 6 5 5 5 4 4 4 3 3 3 4 4 4
10 10 11 15 14 15 14 13 13 12 8 5 4 4 5 5 7 8 8 8 7 6 6 5 5 5 5 5 6 6 6 6 6 6 5 5 4 4 4 4 4 4 3 4
8 9 14 7 5 9 11 11 10 8 6 4 4 3 3 4 6 7 8 7 7 6 6 5 5 5 5 5 5 6 6 6 6 6 5 5 5 4 4 4 3 3 3 3
8 11 10 6 5 7 9 9 7 7 5 3 3 4 3 2 3 5 6 6 6 5 6 5 5 6 6 6 6 6 6 6 6 6 5 5 5 5 4 4 3 3 3 3
9 11 10 4 3 3 7 8 4 5 5 5 5 6 3 3 3 4 5 5 5 5 6 6 6 6 6 6 6 6 6 5 6 5 5 5 4 4 4 3 3 3 3 3
12 11 6 1 1 5 9 2 3 3 4 3 3 2 3 3 3 3 4 5 5 6 5 5 6 6 6 5 5 5 5 5 5 5 5 4 4 3 4 4 4 3 3 3
9 10 5 2 2 4 2 3 1 2 2 2 2 1 1 2 3 3 4 5 5 5 5 5 5 6 5 5 4 4 5 5 5 5 5 4 4 4 4 4 5 4 4 3
3 2 3 1 1 1 1 0 0 1 2 3 2 3 2 2 3 3 4 5 4 5 5 5 5 5 5 4 4 5 5 5 5 5 4 4 4 5 5 5 4 4 4 3
4 3 1 1 1 1 1 0 0 1 1 2 2 2 3 3 3 3 4 5 4 5 6 5 4 4 4 4 4 5 5 4 4 4 4 4 3 4 4 4 4 3 3 3
5 3 2 2 1 0 1 1 0 1 1 1 2 2 2 2 3 3 4 4 4 4 4 4 4 4 4 4 5 5 5 4 4 4 3 3 3 1 2 1 1 2 2 3
2 1 2 1 1 2 1 1 1 1 1 1 1 1 2 2 3 3 4 5 4 4 5 5 5 4 4 4 5 5 5 5 4 3 3 3 3 3 3 1 3 2 0 1
2 2 2 2 2 1 1 2 1 1 1 1 1 2 2 3 3 3 4 5 5 4 5 5 4 4 4 4 4 4 4 4 3 3 3 3 3 3 3 3 2 2 2 3
1 1 1 1 1 2 2 2 2 2 2 2 2 2 2 3 3 4 3 4 4 4 4 4 4 4 3 4 4 4 4 3 3 3 3 3 3 3 3 3 3 3 4 5
2 1 1 1 1 2 2 3 3 3 3 3 3 3 3 3 3 3 2 3 4 4 4 4 4 3 3 4 4 4 3 2 2 2 3 3 3 3 3 3 2 2 3 4
2 2 1 2 2 2 2 2 2 2 3 3 3 3 2 3 3 3 2 2 3 3 3 3 3 3 3 3 4 4 3 2 2 2 3 3 3 3 2 2 2 2 2 2
1 0 1 1 2 2 2 2 2 2 2 3 3 3 3 3 3 3 2 2 2 2 2 2 2 2 3 3 4 3 3 3 4 4 3 2 2 2 2 2 2 2 2 2
1 1 0 0 1 1 2 2 2 2 3 3 3 3 3 3 3 3 2 2 2 2 1 1 2 2 2 3 3 2 2 3 3 3 2 2 1 2 2 2 2 2 2 3
1 1 1 2 2 1 2 2 2 2 3 2 3 3 3 3 2 2 2 2 2 2 1 1 1 3 2 2 2 2 2 3 3 2 2 3 3 2 2 2 2 2 2 2
1 2 2 2 2 2 2 2 2 2 2 2 2 3 2 2 2 2 2 2 1 1 1 1 2 2 2 2 2 2 2 2 2 2 2 2 2 2 2 2 2 2 2 2
1 1 2 2 2 2 2 2 2 2 2 2 2 2 1 1 1 1 1 2 2 2 1 2 1 1 1 1 3 2 2 2 2 2 2 2 2 2 2 2 2 2 2 2
1 2 2 2 2 2 3 2 2 3 3 2 2 2 1 1 1 1 1 1 2 1 0 1 1 2 1 1 2 2 2 2 2 2 2 2 2 2 2 2 2 2 2 2
1 2 2 2 2 2 2 2 2 2 2 2 1 1 1 1 0 0 1 1 1 2 0 1 3 3 1 2 1 1 1 2 2 2 2 2 2 2 2 2 2 2 2 2
2 2 2 2 2 2 2 2 2 1 1 1 1 0 0 1 1 1 1 2 2 1 1 3 3 2 2 2 1 1 1 2 2 2 2 2 2 2 2 2 2 2 2 3
1 2 2 2 1 1 1 1 1 1 1 1 1 1 0 0 1 1 1 2 2 1 2 4 5 3 2 1 0 0 1 1 1 2 1 1 1 1 1 1 1 2 2 2
1 1 1 1 1 0 0 0 0 0 1 1 1 1 1 1 1 1 1 1 2 1 0 2 3 3 1 0 0 0 1 0 1 1 1 1 1 1 1 1 1 2 2 1
2 2 1 1 1 1 0 0 0 1 1 1 1 1 1 1 1 1 1 1 1 1 1 0 0 1 0 0 0 0 0 0 0 1 1 1 1 1 1 1 1 1 1 1
Wind_Direction
253 254 245 237 234 230 233 243 250 250 251 240 232 228 188 176 171 166 162 165 163 159 156 161 157 156 155 155 162 167 166 164 163 161 157 159 161 162 164 163 155 146 146 142
243 240 239 241 238 234 234 239 246 253 254 250 248 217 183 181 179 177 175 174 170 165 160 164 161 160 156 157 162 165 165 166 161 157 152 153 157 154 159 161 150 143 136 131
239 230 238 237 235 233 232 233 240 246 250 233 222 221 214 199 191 185 181 178 177 174 168 168 167 161 161 161 162 164 165 163 158 158 156 158 156 157 162 158 149 146 145 141
241 223 231 233 233 239 235 232 240 248 247 247 246 230 211 203 197 189 181 179 178 177 172 170 168 163 161 163 169 170 170 167 164 164 162 160 159 158 163 162 154 151 147 136
237 231 236 217 216 232 233 230 234 235 230 226 200 185 168 166 180 186 178 173 172 173 168 166 169 167 168 170 177 180 179 174 171 170 167 167 165 166 167 163 160 159 153 148
239 241 239 208 163 248 240 225 190 213 210 203 203 219 163 143 159 160 153 159 162 164 162 164 171 173 174 176 179 183 183 178 171 174 174 176 171 172 164 161 163 165 159 162
237 244 242 68 142 215 223 205 144 187 196 205 216 319 86 124 145 149 148 152 154 159 160 162 167 173 176 174 178 182 179 177 171 173 175 173 170 171 166 168 163 171 167 168
227 236 227 89 199 226 353 26 138 168 177 174 144 133 139 132 143 154 153 149 150 154 152 154 166 172 171 169 170 172 171 172 168 172 180 164 165 171 172 172 171 174 174 177
250 259 31 343 329 356 319 301 60 166 170 168 173 181 173 162 158 159 156 151 153 153 150 153 165 171 169 166 168 167 167 168 167 171 175 166 172 177 179 181 189 182 184 182
245 233 264 266 210 239 275 257 231 183 192 183 185 176 163 154 149 153 154 153 156 157 156 156 164 172 169 167 170 169 169 167 173 174 175 174 190 192 194 191 193 193 196 191
236 232 231 199 189 221 50 48 85 83 146 169 160 165 158 150 152 156 154 153 157 159 159 160 165 167 162 167 174 177 176 176 181 184 178 179 182 190 216 187 245 238 214 198
271 287 276 355 42 17 27 60 67 83 66 48 80 136 138 136 144 152 156 155 158 159 158 160 166 164 161 169 175 184 185 184 185 187 179 187 174 154 73 70 95 90 344 265
330 339 344 354 356 1 46 64 63 72 75 66 66 94 115 130 144 152 156 155 155 160 160 162 165 164 166 176 182 194 196 189 195 190 186 193 192 186 167 137 139 157 172 177
22 19 38 34 26 33 55 76 78 77 78 82 83 94 114 132 138 145 152 157 154 156 159 161 164 160 167 175 181 193 200 182 197 194 193 194 194 200 195 186 179 174 174 178
359 348 359 50 89 74 77 90 92 90 88 83 83 91 106 123 127 127 129 146 150 152 154 158 159 156 178 182 180 190 199 192 204 203 200 197 199 203 199 198 198 182 164 156
328 353 67 107 96 83 82 89 91 87 81 76 73 75 101 114 116 111 112 131 145 146 151 159 165 165 181 186 184 188 192 170 222 218 204 196 195 198 194 191 195 190 189 167
286 328 111 109 94 79 71 68 64 66 70 68 69 68 81 103 108 106 101 104 123 132 146 159 164 169 175 185 199 200 192 170 197 220 210 199 194 194 192 201 200 191 183 131
306 296 300 159 112 97 80 61 59 63 69 73 81 79 73 78 83 88 94 102 116 120 119 139 151 181 181 189 207 211 199 188 197 209 199 195 180 180 198 206 203 200 185 161
14 75 75 67 59 78 85 67 58 68 73 82 89 82 70 68 76 91 109 130 143 144 127 118 156 200 188 178 224 218 210 192 186 190 185 165 198 203 201 207 205 206 205 201
89 81 77 72 58 62 80 87 83 86 92 91 92 88 79 72 76 76 69 74 58 40 104 122 163 182 195 175 236 222 210 194 183 178 190 194 200 206 210 215 219 214 217 219
88 75 76 77 68 57 57 72 87 97 101 105 105 96 86 84 92 100 87 68 49 25 68 138 163 158 176 172 231 228 202 195 191 190 197 203 203 206 207 212 226 228 227 229
88 81 83 76 66 57 54 61 88 97 95 97 96 87 78 72 78 84 68 39 61 52 240 152 136 74 40 261 212 214 195 188 200 205 200 210 214 218 219 221 229 230 230 236
80 83 83 81 78 72 63 61 81 87 78 72 72 82 85 62 32 22 43 55 51 69 45 67 74 88 97 233 210 197 201 212 221 223 211 210 223 230 230 231 236 237 239 241
78 80 83 87 99 100 84 69 79 98 103 93 73 92 151 158 119 42 40 83 63 64 81 85 98 122 212 234 229 222 232 238 235 234 229 218 220 226 227 227 229 232 234 243
109 103 98 103 109 105 97 97 101 130 142 128 121 134 132 44 42 49 50 68 94 158 129 124 144 168 211 225 229 271 286 317 319 293 265 257 247 235 232 238 243 249 252 256
128 126 111 117 119 150 142 121 99 109 124 127 127 115 94 87 78 66 74 74 81 103 182 150 149 178 200 166 96 318 315 329 277 274 291 295 296 295 283 275 274 274 271 267
148 144 148 140 130 139 153 129 70 55 73 78 75 78 93 105 92 59 36 33 47 78 58 54 104 135 138 160 177 219 198 32 325 308 312 308 306 299 279 262 274 274 274 269